Starlink 1750

operational
NORAD ID: 46337 Int'l Des: 2020-062 Owner: SPXS Country: US Constellation: starlink
LEOCIRCULARSTARLINK_TYPE

Über Starlink 1750

Beschreibung wird geladen...

Live-Position

3D-Globus wird geladen...

Nächste Überflüge

Höhenverlauf

Altitude vs Time

uPlot chart will show altitude changes over time

Zweizeiliger Elementsatz

1 46337U 20062N 25257.58335648 .01201461 00000-0 63743-1 0 9995
2 46337 53.0551 67.0924 0001169 84.5273 131.4470 15.12257230 5742
Epoch: 14. Sept. 2025 • Age: 18 hours

Aktueller Status

Höhe 543.3 km
Geschwindigkeit 7.59 km/s
Subsatellitenpunkt -52.54°S, 147.96°W
Startdatum 3. Sept. 2020
Alter 5 years
Typ internet

Technische Details

Klassifizierung Payload
Masse 260.00 kg
Trockenmasse 248.00 kg
Gesamtmasse 260.00 kg
Länge 0.20 m
Durchmesser 2.80 m
Spannweite 9.00 m
Form Box + pan
Hersteller SPXS
Bus-Typ Starlink
Phasenstatus In Orbit
Besitzer/Staat SPXS/US

Große Konstellationen

Loading constellations...